TimeCST,TemperatureF,Dew PointF,Humidity,Sea Level PressureIn,VisibilityMPH,Wind Direction,Wind SpeedMPH,Gust SpeedMPH,PrecipitationIn,Events,Conditions,WindDirDegrees,DateUTC
12:53 AM,63.0,62.1,97,30.08,8.0,NNE,3.5,-,N/A,,Overcast,20,2013-11-16 06:53:00
1:53 AM,62.1,61.0,96,30.07,8.0,NE,3.5,-,N/A,,Overcast,40,2013-11-16 07:53:00
2:53 AM,62.1,61.0,96,30.07,9.0,East,3.5,-,N/A,,Overcast,80,2013-11-16 08:53:00
3:53 AM,62.1,61.0,96,30.06,9.0,East,4.6,-,N/A,,Overcast,80,2013-11-16 09:53:00
4:23 AM,63.0,61.0,93,30.06,9.0,East,5.8,-,N/A,,Overcast,90,2013-11-16 10:23:00
4:53 AM,63.0,61.0,93,30.06,8.0,East,3.5,-,0.00,Rain,Light Rain,80,2013-11-16 10:53:00
5:07 AM,63.0,61.0,93,30.06,10.0,Calm,Calm,-,0.00,,Overcast,0,2013-11-16 11:07:00
5:53 AM,63.0,61.0,93,30.07,9.0,East,6.9,-,0.00,,Overcast,80,2013-11-16 11:53:00
6:00 AM,63.0,61.0,93,30.07,9.0,Variable,4.6,-,N/A,,Overcast,0,2013-11-16 12:00:00
6:12 AM,63.0,61.0,93,30.07,8.0,Calm,Calm,-,N/A,,Overcast,0,2013-11-16 12:12:00
6:26 AM,63.0,61.0,93,30.08,8.0,Calm,Calm,-,N/A,,Overcast,0,2013-11-16 12:26:00
6:53 AM,63.0,61.0,93,30.08,6.0,NE,3.5,-,N/A,,Overcast,50,2013-11-16 12:53:00
7:53 AM,64.0,62.1,93,30.10,4.0,Calm,Calm,-,N/A,,Overcast,0,2013-11-16 13:53:00
8:27 AM,64.0,62.1,93,30.11,6.0,ENE,4.6,-,N/A,,Overcast,60,2013-11-16 14:27:00
8:53 AM,64.9,63.0,93,30.12,8.0,ENE,4.6,-,N/A,,Overcast,60,2013-11-16 14:53:00
9:05 AM,64.9,63.0,93,30.12,8.0,ENE,4.6,-,N/A,,Overcast,70,2013-11-16 15:05:00
9:53 AM,66.9,64.0,90,30.12,4.0,East,4.6,-,N/A,,Mostly Cloudy,80,2013-11-16 15:53:00
10:53 AM,66.9,64.0,90,30.10,10.0,East,5.8,-,N/A,,Overcast,80,2013-11-16 16:53:00
11:17 AM,66.9,63.0,87,30.10,10.0,East,5.8,-,N/A,,Overcast,90,2013-11-16 17:17:00
11:53 AM,68.0,64.0,87,30.08,10.0,East,5.8,-,N/A,,Overcast,80,2013-11-16 17:53:00
12:53 PM,68.0,64.9,90,30.05,10.0,East,4.6,-,N/A,,Overcast,90,2013-11-16 18:53:00
1:53 PM,69.1,64.9,87,30.03,10.0,ESE,6.9,-,N/A,,Overcast,110,2013-11-16 19:53:00
2:53 PM,69.1,64.9,87,30.03,10.0,ESE,5.8,-,N/A,,Overcast,110,2013-11-16 20:53:00
3:53 PM,69.1,64.9,87,30.03,10.0,East,5.8,-,N/A,,Overcast,100,2013-11-16 21:53:00
4:53 PM,69.1,64.9,87,30.04,10.0,East,3.5,-,N/A,,Overcast,100,2013-11-16 22:53:00
5:53 PM,68.0,64.0,87,30.05,10.0,East,4.6,-,N/A,,Overcast,100,2013-11-16 23:53:00
6:26 PM,66.9,64.0,90,30.05,10.0,ESE,5.8,-,N/A,,Overcast,110,2013-11-17 00:26:00
6:51 PM,66.2,64.4,94,30.05,10.0,East,13.8,-,N/A,,Overcast,100,2013-11-17 00:51:00
6:53 PM,66.0,64.0,93,30.05,10.0,ESE,12.7,-,N/A,,Overcast,110,2013-11-17 00:53:00
7:53 PM,64.9,62.1,90,30.06,10.0,Calm,Calm,-,N/A,,Mostly Cloudy,0,2013-11-17 01:53:00
8:05 PM,64.9,62.1,90,30.06,10.0,SSE,5.8,-,N/A,,Scattered Clouds,150,2013-11-17 02:05:00
8:42 PM,66.0,64.0,93,30.06,10.0,SE,5.8,-,N/A,,Mostly Cloudy,130,2013-11-17 02:42:00
8:53 PM,64.9,63.0,93,30.06,10.0,SE,5.8,-,N/A,,Overcast,130,2013-11-17 02:53:00
9:53 PM,66.0,64.0,93,30.05,10.0,SE,5.8,-,N/A,,Overcast,130,2013-11-17 03:53:00
10:53 PM,66.9,64.0,90,30.03,10.0,ESE,11.5,-,N/A,,Overcast,120,2013-11-17 04:53:00
11:34 PM,66.0,64.0,93,30.02,10.0,ESE,8.1,-,N/A,,Overcast,120,2013-11-17 05:34:00
11:53 PM,66.9,64.0,90,30.01,10.0,ESE,9.2,-,N/A,,Overcast,120,2013-11-17 05:53:00